This is the latest recevied weather packets stored in our database for station/object W6MAF. If no packets are shown the sender has not sent any weather packets the latest 10 day(s).
| Time | Temp. | Humidity | Pressure | Rain* | Wind** | Luminosity | Snow |
|---|---|---|---|---|---|---|---|
| 1777804128 | 11.11° C | 85% | - | 0 mm | 4.02 m/s, 211° | - | - |
| 1777803830 | 11.11° C | 83% | - | 0 mm | 4.47 m/s, 224° | - | - |
| 1777803529 | 11.67° C | 81% | - | 0 mm | 4.47 m/s, 225° | - | - |
| 1777803231 | 11.67° C | 80% | - | 0 mm | 4.92 m/s, 232° | - | - |
| 1777802934 | 11.67° C | 80% | - | 0 mm | 5.36 m/s, 222° | - | - |
| 1777802669 | 11.67° C | 78% | - | 0 mm | 4.92 m/s, 200° | - | - |
| 1777802636 | 11.67° C | 78% | - | 0 mm | 4.92 m/s, 200° | - | - |
| 1777802338 | 11.67° C | 78% | - | 0 mm | 5.36 m/s, 222° | - | - |
| 1777801740 | 11.67° C | 75% | - | 0 mm | 5.81 m/s, 190° | - | - |
| 1777801442 | 11.67° C | 73% | - | 0 mm | 6.26 m/s, 217° | - | - |
| 1777801144 | 11.67° C | 70% | - | 0 mm | 4.92 m/s, 198° | - | - |
| 1777800847 | 12.22° C | 67% | - | 0 mm | 4.47 m/s, 205° | - | - |
| 1777800549 | 12.22° C | 64% | - | 0 mm | 4.47 m/s, 205° | - | - |
| 1777800251 | 12.78° C | 60% | - | 0 mm | 4.47 m/s, 221° | - | - |
| 1777799950 | 13.33° C | 55% | - | 0 mm | 4.02 m/s, 219° | - | - |
| 1777799652 | 13.33° C | 52% | - | 0 mm | 4.02 m/s, 218° | - | - |
| 1777799355 | 13.33° C | 50% | - | 0 mm | 4.02 m/s, 200° | - | - |
| 1777799058 | 13.33° C | 48% | - | 0 mm | 3.58 m/s, 193° | - | - |
| 1777798759 | 13.33° C | 47% | - | 0 mm | 3.13 m/s, 210° | - | - |
| 1777798161 | 13.33° C | 45% | - | 0 mm | 3.13 m/s, 173° | - | - |
| 1777797863 | 13.33° C | 43% | - | 0 mm | 3.13 m/s, 200° | - | - |
| 1777797565 | 13.89° C | 39% | - | 0 mm | 2.68 m/s, 188° | - | - |
| 1777797268 | 13.89° C | 38% | - | 0 mm | 2.68 m/s, 191° | - | - |
| 1777796970 | 13.89° C | 37% | - | 0 mm | 3.13 m/s, 194° | - | - |
| 1777796672 | 13.89° C | 36% | - | 0 mm | 2.24 m/s, 165° | - | - |
* Rain latest hour (hover to see other rain measurements)
** Current wind speed in m/s (hover to see current wind gust speed)